Location: Edisto_Beach
(32.4790°N, 80.3350°W)
Time: 10:00:39
(UTC-04:00)

Amateur Radio Satellites - All Passes

Search period start: 20 September 2014 09:30
Search period end: 21 September 2014 09:30
Location: Edisto_Beach, 32.4790°N, 80.3350°W

Satellite Date Start Highest point End Downlink Frequencies (MHz)
Time Altitude Azimuth
ISS 20 Sep 09:44:58 09:47:56 29° 39° (NE) 09:50:53 145.800 FM
UOSAT-12 20 Sep 09:49:34 09:54:16 65° 60° (ENE) 09:58:51 437.025 FM, 437.400 FM
MaSat-1 20 Sep 10:03:08 10:05:58 15° 303° (WNW) 10:08:47 437.345 MHz
HO-68 20 Sep 10:24:11 10:31:23 79° 105° (ESE) 10:38:34 435.675 MHz FM
FUNcube-1 20 Sep 10:39:16 10:42:01 16° 93° (E) 10:44:44 145.950 - 145.970 MHz USB
Oscar 11 20 Sep 10:46:17 10:50:30 49° 100° (E) 10:54:40 145.825 FM, Beacon 2401.500 USB
UKube-1 20 Sep 11:03:35 11:07:55 72° 284° (WNW) 11:12:15 145.840 MHz, 145.915 MHz
Sapphire 20 Sep 11:09:02 11:11:12 13° 103° (ESE) 11:13:23 437.095 MHz 1200 baud AX-25 AFSK
ISS 20 Sep 11:22:03 11:24:29 19° 232° (SW) 11:26:54 145.800 FM
UOSAT-12 20 Sep 11:33:27 11:33:46 10° 254° (WSW) 11:34:05 437.025 FM, 437.400 FM
PCSat 20 Sep 11:33:29 11:37:52 26° 107° (ESE) 11:42:16 145.825 MHz
HO-68 20 Sep 12:14:01 12:18:14 17° 300° (WNW) 12:22:27 435.675 MHz FM
FUNcube-1 20 Sep 12:14:13 12:18:30 39° 287° (WNW) 12:22:42 145.950 - 145.970 MHz USB
RS-15 20 Sep 12:17:02 12:25:27 24° 41° (NE) 12:34:02 29.354 - 29.394 USB, Beacon 29.352 USB
Oscar 11 20 Sep 12:24:45 12:26:11 12° 293° (WNW) 12:27:37 145.825 FM, Beacon 2401.500 USB
Oscar 19 20 Sep 12:47:13 12:48:03 10° 63° (ENE) 12:48:52 437.125 CW, 437.150 USB
Sapphire 20 Sep 12:48:38 12:53:59 65° 297° (WNW) 12:59:22 437.095 MHz 1200 baud AX-25 AFSK
Oscar 10/S400 20 Sep 13:01:52 13:27:10 21° 157° (SSE) 13:40:55 145.825 - 145.975 CW/USB, Beacon 145.810 USB
PCSat 20 Sep 13:16:12 13:21:04 34° 301° (WNW) 13:25:59 145.825 MHz
Oscar 16 20 Sep 13:22:19 13:26:35 27° 69° (ENE) 13:30:53 437.025 USB, Beacon 2401.1428
AO-Echo 20 Sep 13:31:26 13:33:22 12° 66° (ENE) 13:35:18 ?
Gurwin Techsat 1B 20 Sep 14:03:24 14:05:12 12° 64° (ENE) 14:06:59 435.225 FM
ITAMSAT 1 20 Sep 14:07:18 14:11:42 29° 70° (ENE) 14:16:07 435.822 SSB
Uribyol 2 20 Sep 14:11:02 14:15:39 34° 71° (ENE) 14:20:17 436.500 FM
Oscar 19 20 Sep 14:21:28 14:26:39 78° 257° (WSW) 14:31:52 437.125 CW, 437.150 USB
JAS-1B 20 Sep 14:22:39 14:31:23 64° 73° (ENE) 14:38:43 435.800 - 435.900 CW/SSB
RS-15 20 Sep 14:28:10 14:39:25 88° 63° (ENE) 14:51:10 29.354 - 29.394 USB, Beacon 29.352 USB
TMSAT-1 20 Sep 14:37:46 14:41:26 20° 67° (ENE) 14:45:07 436.925 FM
AO-27 20 Sep 14:41:41 14:46:49 69° 75° (ENE) 14:51:58 436.795 MHz FM
Oscar 16 20 Sep 15:01:19 15:05:47 29° 263° (W) 15:10:16 437.025 USB, Beacon 2401.1428
AO-Echo 20 Sep 15:07:01 15:11:40 53° 259° (W) 15:16:16 ?
AO-7 20 Sep 15:29:12 15:35:30 25° 60° (ENE) 15:41:47 29.400 - 29.500 MHz
Gurwin Techsat 1B 20 Sep 15:39:12 15:44:29 72° 258° (WSW) 15:49:47 435.225 FM
ITAMSAT 1 20 Sep 15:46:51 15:51:06 26° 263° (W) 15:55:23 435.822 SSB
Uribyol 2 20 Sep 15:51:10 15:55:07 22° 264° (W) 15:59:06 436.500 FM
JAS-1B 20 Sep 16:15:22 16:21:57 23° 263° (W) 16:27:52 435.800 - 435.900 CW/SSB
TMSAT-1 20 Sep 16:16:01 16:20:59 42° 261° (W) 16:26:00 436.925 FM
Uosat F 20 Sep 16:18:07 16:22:26 30° 70° (ENE) 16:26:45 435.120 FM
AO-27 20 Sep 16:25:57 16:26:43 10° 268° (W) 16:27:29 436.795 MHz FM
Saudisat 1A 20 Sep 16:39:13 16:43:03 30° 112° (ESE) 16:46:55 436.775 MHz
RS-15 20 Sep 16:43:25 16:50:24 19° 259° (W) 16:57:37 29.354 - 29.394 USB, Beacon 29.352 USB
AO-7 20 Sep 17:19:23 17:27:36 64° 256° (WSW) 17:35:50 29.400 - 29.500 MHz
OPAL 20 Sep 17:27:27 17:31:52 29° 99° (E) 17:36:12 ?
JAS-2 20 Sep 17:40:17 17:44:36 26° 70° (ENE) 17:48:49 435.800 - 435.900 CW/SSB, 435.910 FM
Uosat F 20 Sep 17:57:11 18:01:09 24° 264° (W) 18:05:09 435.120 FM
Saudisat 1A 20 Sep 18:19:13 18:22:37 22° 307° (NW) 18:26:02 436.775 MHz
MaSat-1 20 Sep 18:22:17 18:25:38 36° 63° (ENE) 18:28:31 437.345 MHz
Hamsat 20 Sep 18:23:32 18:27:51 64° 76° (ENE) 18:32:10 145.90 MHz
KITSAT 1 20 Sep 18:53:31 19:00:56 41° 108° (ESE) 19:08:21 435.175 FM
OPAL 20 Sep 19:06:19 19:10:35 27° 293° (WNW) 19:14:48 ?
SO-67 20 Sep 19:11:49 19:14:35 23° 73° (ENE) 19:17:21 435.3500 MHz FM
JAS-2 20 Sep 19:25:06 19:29:37 28° 263° (W) 19:34:00 435.800 - 435.900 CW/SSB, 435.910 FM
STRAND 1 20 Sep 19:48:14 19:53:13 49° 100° (E) 19:58:10 ?
SO-67 20 Sep 20:45:46 20:47:34 14° 266° (W) 20:49:22 435.3500 MHz FM
HO-68 20 Sep 20:48:03 20:54:26 37° 67° (ENE) 21:00:49 435.675 MHz FM
KITSAT 1 20 Sep 20:48:52 20:56:15 38° 305° (NW) 21:03:42 435.175 FM
STRAND 1 20 Sep 21:28:51 21:31:57 16° 294° (WNW) 21:35:03 ?
Oscar 11 20 Sep 21:37:26 21:40:49 22° 70° (ENE) 21:44:12 145.825 FM, Beacon 2401.500 USB
Sapphire 20 Sep 21:41:26 21:46:28 37° 59° (ENE) 21:51:27 437.095 MHz 1200 baud AX-25 AFSK
UKube-1 20 Sep 21:54:26 21:58:38 53° 74° (ENE) 22:02:51 145.840 MHz, 145.915 MHz
PCSat 20 Sep 22:08:04 22:13:29 73° 64° (ENE) 22:18:52 145.825 MHz
SO-50 20 Sep 22:25:22 22:29:48 86° 117° (ESE) 22:34:22 436.795 FM
HO-68 20 Sep 22:35:39 22:42:01 35° 261° (W) 22:48:25 435.675 MHz FM
FUNcube-1 20 Sep 23:05:25 23:09:47 85° 258° (WSW) 23:14:18 145.950 - 145.970 MHz USB
Oscar 11 20 Sep 23:13:16 23:16:50 25° 264° (W) 23:20:25 145.825 FM, Beacon 2401.500 USB
Sapphire 20 Sep 23:25:24 23:29:36 23° 254° (WSW) 23:33:47 437.095 MHz 1200 baud AX-25 AFSK
PCSat 20 Sep 23:54:49 23:56:11 11° 258° (WSW) 23:57:34 145.825 MHz
UOSAT-12 20 Sep 23:56:11 00:00:39 57° 115° (ESE) 00:05:15 437.025 FM, 437.400 FM
PANSAT 21 Sep 00:12:59 00:15:13 15° 158° (SSE) 00:17:27 not established
UOSAT-12 21 Sep 01:38:37 01:41:10 14° 311° (NW) 01:43:44 437.025 FM, 437.400 FM
Oscar 16 21 Sep 01:40:06 01:42:28 13° 93° (E) 01:44:49 437.025 USB, Beacon 2401.1428
PANSAT 21 Sep 01:51:25 01:54:56 35° 169° (S) 01:58:27 not established
Oscar 10/S400 21 Sep 01:57:45 03:13:29 46° 232° (SW) 09:07:28 145.825 - 145.975 CW/USB, Beacon 145.810 USB
JAS-1B 21 Sep 02:15:34 02:18:43 15° 94° (E) 02:21:55 435.800 - 435.900 CW/SSB
ISS 21 Sep 02:23:35 02:26:53 64° 317° (NW) 02:30:11 145.800 FM
ITAMSAT 1 21 Sep 02:25:50 02:28:49 15° 94° (E) 02:31:47 435.822 SSB
Uribyol 2 21 Sep 02:29:13 02:32:44 18° 95° (E) 02:36:14 436.500 FM
Oscar 19 21 Sep 02:37:56 02:43:00 55° 101° (E) 02:48:01 437.125 CW, 437.150 USB
RS-15 21 Sep 02:39:03 02:45:29 17° 101° (E) 02:51:48 29.354 - 29.394 USB, Beacon 29.352 USB
Saudisat 1A 21 Sep 02:48:57 02:53:23 83° 62° (ENE) 02:57:46 436.775 MHz
AO-27 21 Sep 02:59:41 03:04:29 36° 99° (E) 03:09:15 436.795 MHz FM
TMSAT-1 21 Sep 03:00:52 03:01:11 10° 91° (E) 03:01:30 436.925 FM
Oscar 16 21 Sep 03:17:02 03:22:05 56° 286° (WNW) 03:27:06 437.025 USB, Beacon 2401.1428
AO-Echo 21 Sep 03:18:13 03:23:07 69° 102° (ESE) 03:28:09 ?
PANSAT 21 Sep 03:31:10 03:34:51 45° 182° (S) 03:38:31 not established
Gurwin Techsat 1B 21 Sep 04:00:09 04:05:27 68° 102° (ESE) 04:10:43 435.225 FM
ITAMSAT 1 21 Sep 04:03:28 04:08:30 50° 287° (WNW) 04:13:31 435.822 SSB
JAS-1B 21 Sep 04:04:14 04:09:41 50° 288° (WNW) 04:15:18 435.800 - 435.900 CW/SSB
Uribyol 2 21 Sep 04:07:24 04:12:19 43° 288° (WNW) 04:17:13 436.500 FM
Oscar 19 21 Sep 04:19:05 04:21:49 15° 295° (WNW) 04:24:32 437.125 CW, 437.150 USB
Uosat F 21 Sep 04:31:54 04:34:17 13° 93° (E) 04:36:40 435.120 FM
TMSAT-1 21 Sep 04:36:14 04:41:32 73° 285° (WNW) 04:46:48 436.925 FM
OPAL 21 Sep 04:37:48 04:42:20 32° 68° (ENE) 04:46:54 ?
AO-27 21 Sep 04:39:47 04:43:43 22° 292° (WNW) 04:47:39 436.795 MHz FM
RS-15 21 Sep 04:45:10 04:56:20 89° 297° (WNW) 05:07:19 29.354 - 29.394 USB, Beacon 29.352 USB
KITSAT 1 21 Sep 04:46:25 04:54:12 49° 58° (ENE) 05:01:55 435.175 FM
AO-Echo 21 Sep 05:00:14 05:01:18 11° 295° (WNW) 05:02:24 ?
PANSAT 21 Sep 05:11:24 05:14:43 28° 195° (SSW) 05:18:02 not established
AO-7 21 Sep 05:26:06 05:34:16 60° 104° (ESE) 05:42:25 29.400 - 29.500 MHz
Gurwin Techsat 1B 21 Sep 05:42:40 05:44:46 12° 296° (WNW) 05:46:51 435.225 FM
Uosat F 21 Sep 06:08:25 06:13:18 53° 287° (WNW) 06:18:11 435.120 FM
Hamsat 21 Sep 06:15:20 06:17:54 16° 94° (E) 06:20:27 145.90 MHz
OPAL 21 Sep 06:16:56 06:21:08 25° 262° (W) 06:25:23 ?
JAS-2 21 Sep 06:35:57 06:41:57 43° 100° (E) 06:48:38 435.800 - 435.900 CW/SSB, 435.910 FM
KITSAT 1 21 Sep 06:42:25 06:49:11 31° 254° (WSW) 06:55:57 435.175 FM
STRAND 1 21 Sep 06:59:46 07:04:33 43° 72° (ENE) 07:09:21 ?
SO-50 21 Sep 07:01:46 07:05:42 24° 54° (NE) 07:09:38 436.795 FM
RS-15 21 Sep 07:02:04 07:10:15 23° 320° (NW) 07:18:27 29.354 - 29.394 USB, Beacon 29.352 USB
AO-7 21 Sep 07:19:58 07:26:26 26° 299° (WNW) 07:32:55 29.400 - 29.500 MHz
Hamsat 21 Sep 07:50:09 07:53:54 31° 287° (WNW) 07:57:36 145.90 MHz
MaSat-1 21 Sep 08:01:45 08:06:31 49° 108° (ESE) 08:11:19 437.345 MHz
SO-67 21 Sep 08:12:00 08:15:23 52° 100° (E) 08:18:44 435.3500 MHz FM
JAS-2 21 Sep 08:21:38 08:26:46 28° 290° (WNW) 08:32:25 435.800 - 435.900 CW/SSB, 435.910 FM
UOSAT-12 21 Sep 08:31:22 08:34:18 16° 50° (NE) 08:37:12 437.025 FM, 437.400 FM
STRAND 1 21 Sep 08:40:40 08:43:52 17° 266° (W) 08:47:05 ?
SO-50 21 Sep 08:41:56 08:46:16 33° 248° (WSW) 08:50:36 436.795 FM
ISS 21 Sep 08:56:36 08:58:57 18° 34° (NE) 09:01:17 145.800 FM
